Weather History for Grand Forks, ND

Change the Weather History Date:

Friday, April 27, 2012

  Actual Average Record
Temperature  
Mean Temperature 49 °F 48 °F  
Max Temperature 54 °F 61 °F 95 °F (1952)
Min Temperature 43 °F 35 °F 15 °F (1956)
Degree Days  
Heating Degree Days 16 17  
Month to date heating degree days 517 645  
Since 1 July heating degree days 7183 9030  
Cooling Degree Days 0 0  
Month to date cooling degree days 0 0  
Year to date cooling degree days 0 0  
Moisture  
Dew Point 29 °F    
Average Humidity 51    
Maximum Humidity 70    
Minimum Humidity 32    
Precipitation  
Precipitation 0.09 in 0.05 in 0.99 in (1942)
Month to date precipitation 1.22 0.86  
Year to date precipitation 3.90 2.89  
Snow  
Snow 0.00 in 0.10 in 3.00 in (1966)
Month to date snowfall T 2.5  
Since 1 July snowfall 22.8 46.9  
Snow Depth 0.00 in    
Sea Level Pressure  
Sea Level Pressure 30.09 in    
Wind  
Wind Speed 13 mph (ESE)    
Max Wind Speed 25 mph    
Max Gust Speed 31 mph    
Visibility 10 miles    
Events Rain    
T = Trace of Precipitation, MM = Missing Value Source: NWS Daily Summary

Daily Weather History Graph

Daily Weather History Graph

Search for Another Location

Airport:

Trip Planner

Search our weather history database for the weather conditions in past years. The results will help you decide how hot, cold, wet, or windy it might be!

Date:

Astronomy

Apr. 27, 2012 Rise Set
Actual Time 6:16 AM CDT 8:36 PM CDT
Civil Twilight 5:42 AM CDT 9:11 PM CDT
Nautical Twilight 4:59 AM CDT 9:54 PM CDT
Astronomical Twilight 4:11 AM CDT 10:43 PM CDT
Moon 10:49 AM CDT (4/27) 1:31 AM CDT (4/27)
Length of Visible Light 15h 28m
Length of Day
14h 20m
Waxing Crescent, 33% of the Moon is Illuminated
Apr 27
Waxing Crescent
Apr 29
First Quarter
May 5
Full
May 12
Last Quarter
May 20
New

Hourly Weather History & Observations

Time (CDT) Temp. Windchill Dew Point Humidity Pressure Visibility Wind Dir Wind Speed Gust Speed Precip Events Conditions
12:53 AM 45.0 °F 38.2 °F 24.1 °F 44% 30.15 in 10.0 mi East 15.0 mph - N/A   Overcast
1:53 AM 44.1 °F 36.5 °F 24.1 °F 45% 30.14 in 10.0 mi East 17.3 mph - N/A   Overcast
2:53 AM 44.1 °F 37.1 °F 25.0 °F 47% 30.13 in 10.0 mi East 15.0 mph - N/A   Overcast
3:53 AM 45.0 °F 38.9 °F 27.0 °F 49% 30.13 in 10.0 mi ESE 12.7 mph - N/A   Overcast
4:53 AM 44.1 °F 37.1 °F 27.0 °F 51% 30.13 in 10.0 mi ESE 15.0 mph - N/A   Overcast
5:53 AM 44.1 °F 37.7 °F 26.1 °F 49% 30.11 in 10.0 mi ESE 12.7 mph - N/A   Overcast
6:53 AM 45.0 °F 38.2 °F 26.1 °F 48% 30.12 in 10.0 mi ESE 15.0 mph - N/A   Overcast
7:53 AM 45.0 °F 37.9 °F 26.1 °F 48% 30.13 in 10.0 mi ESE 16.1 mph - N/A   Overcast
8:53 AM 46.9 °F - 26.1 °F 44% 30.13 in 10.0 mi ESE 15.0 mph - N/A   Overcast
9:53 AM 48.9 °F - 25.0 °F 39% 30.12 in 10.0 mi ESE 16.1 mph 24.2 mph N/A   Overcast
10:53 AM 50.0 °F - 24.1 °F 36% 30.11 in 10.0 mi ESE 17.3 mph - N/A   Overcast
11:53 AM 54.0 °F - 24.1 °F 31% 30.10 in 10.0 mi ESE 20.7 mph 28.8 mph N/A   Overcast
12:53 PM 53.1 °F - 24.1 °F 32% 30.10 in 10.0 mi SE 17.3 mph 26.5 mph N/A   Overcast
1:53 PM 54.0 °F - 24.1 °F 31% 30.08 in 10.0 mi SSE 19.6 mph 23.0 mph N/A   Overcast
2:15 PM 50.0 °F - 33.8 °F 54% 30.07 in 10.0 mi SSW 17.3 mph - N/A   Overcast
2:53 PM 48.9 °F - 33.1 °F 54% 30.08 in 10.0 mi South 12.7 mph - N/A   Overcast
3:53 PM 48.9 °F - 34.0 °F 56% 30.06 in 10.0 mi SSW 11.5 mph - N/A   Overcast
4:53 PM 48.9 °F - 32.0 °F 52% 30.06 in 10.0 mi SSE 5.8 mph - N/A   Overcast
5:53 PM 50.0 °F - 34.0 °F 54% 30.06 in 10.0 mi South 4.6 mph - N/A   Overcast
6:53 PM 48.0 °F - 32.0 °F 54% 30.04 in 10.0 mi ESE 15.0 mph - 0.01 in Rain Light Rain
7:53 PM 46.0 °F 39.9 °F 35.1 °F 66% 30.04 in 9.0 mi East 13.8 mph - 0.02 in Rain Light Rain
8:53 PM 46.0 °F 39.9 °F 36.0 °F 68% 30.04 in 10.0 mi East 13.8 mph - 0.03 in Rain Light Rain
9:53 PM 45.0 °F 39.7 °F 36.0 °F 71% 30.05 in 10.0 mi East 10.4 mph - 0.03 in Rain Light Rain
10:53 PM 46.0 °F 41.4 °F 35.1 °F 66% 30.05 in 10.0 mi ESE 9.2 mph - 0.00 in Rain Light Rain
11:53 PM 46.9 °F - 33.1 °F 59% 30.04 in 10.0 mi East 8.1 mph - 0.00 in   Overcast